DELTA 1 DEB, 40766

Orbit data source: Space-Track

DELTA 1 DEB, 40766 is space debris in SSO originally from a launch on Thu, 29 Jul 1976 UTC launched from the Air Force Western Test Range (AFWTR). Debris objects in space refer to the collection of defunct objects orbiting the Earth. Examples of debris include non-operational satellites, rocket bodies, and fragments generated from explosions, collisions, or faulty payload assembly.

Loading next visibility...
Identifier
40766, 1976-077GK
Orbit
SSO
Last TLE update
4 days ago
Origin
Manufacturer
Unknown
Mission
Spacecraft
Bus & Motor
Unknown
Mass
Unknown
Launch date (UTC)
1976-07-29 (49 years ago)
Launch vehicle
Unknown
Launch site
Air Force Western Test Range (AFWTR)
Object type
Payload
Rocket body
Debris
Shape & HBR
Unknown
Radar Cross Section
Small (<0.1 m²)

Expand to show TLE details & history

TLE from 4 days ago
0 DELTA 1 DEB
1 40766U 76077GK  25116.24278887 -.00000011  00000-0  30278-3 0  9997
2 40766 102.1660  25.3524 0101381 233.3845 280.8995 12.23222194 69974
Epoch: 2025-04-26T05:49Z
Definitive object data (Epoch: 2025-04-26T05:49:36.958Z)
Latitude
26.24341°
Longitude
-90.46846°
Altitude
1,566.922 km
Speed
7.093 km/s
True Right ascension
14h 05m 41s
True Declination
26° 07' 16"
Sunlit
Object was in full shadow at TLE epoch
Visualization TLE readout
Latitude
-30.80902°
Longitude
94.48852°
Altitude
1,605.786 km
Speed
7.059 km/s
Apparent Right ascension
00h 07m 03s
Apparent Declination
-43° 22' 58"
Sunlit
Object is in daylight
Visualization observer readout
Local Sidereal Time
08:36:09
Azimuth
247.093° WSW
Elevation
-51.108°
Doppler factor
1
Orbital elements
Apogee altitude
1,656.785 km
Perigee altitude
1,495.503 km
Semi-major axis
7,954.281 km
Eccentricity
0.0101381
Inclination
102.166°
RAAN
25.3524°
Arg. of periapsis
233.3845°
True anomaly
279.75605°
Mean anomaly
280.8995°
Eccentric anomaly
280.32804°
Mean motion
3.05944 °/min
BSTAR
0.00030278
Orbital period
117.67 mins
Loading maneuver chart data...
Loading SW <> Apogee altitude chart data...
Loading historical data...
Loading historical data...
Loading historical data...
Loading historical data...
Loading historical data...
Loading historical data...
Loading historical data...

DELTA 1 DEB Visibility forecast

Observer location: undefined°, undefined°

Span
Click to sort rows by Start time (UTC) header in descending order
Start Az.
Max El. time (UTC)
Max El. Az.
Max El.
End time (UTC)
End Az.
15 mins2025-04-30 05:48:41.134Z33.213° NE2025-04-30 05:56:41.134Z97.882° ESE31.428°2025-04-30 06:03:41.134Z160.235° S
14 mins2025-04-30 07:45:41.134Z4.347° NNE2025-04-30 07:52:41.134Z289.124° WNW37.984°2025-04-30 07:59:41.134Z227.121° WSW
4 mins2025-04-30 09:43:41.134Z331.94° NNW2025-04-30 09:45:41.134Z318.21° NNW11.977°2025-04-30 09:47:41.134Z304.499° NW
8 mins2025-04-30 15:13:41.134Z68.339° E2025-04-30 15:16:41.134Z47.34° ENE15.43°2025-04-30 15:21:41.134Z13.3° NNE
17 mins2025-04-30 17:02:41.134Z141.981° SSE2025-04-30 17:10:41.134Z63.54° ENE41.848°2025-04-30 17:19:41.134Z348.035° N
14 mins2025-04-30 18:59:41.134Z209.178° SW2025-04-30 19:06:41.134Z266.538° W27.504°2025-04-30 19:13:41.134Z320.395° NNW
|